Flag for Italy Weather past 2 weeks in Venice, Italy

Now
61 °F

Passing clouds.


Feels Like: 61 °F
Forecast: 55 / 65 °F
Wind: 6 mph from East

Location: Venice / Tessera


UV Index: 0 (Low)

Visibility: N/A


Pressure: 29.71 "Hg

Humidity: 68%

Dew point: 50 °F

Location of VeniceLocation

Historic Weather in Venice

°F

Venice temperature yesterday

Maximum temperature yesterday: 66 °F (at 3:50 PM)
Minimum temperature yesterday: 54 °F (at 4:20 AM)
Average temperature yesterday: 59 °F

Past Weeks' High & Low Weather Summary

 TemperatureHumidityPressure
High72 °F (Apr 7, 1:50 PM)100% (Apr 14, 8:50 AM)30.15 "Hg (Apr 14, 8:50 AM)
Low43 °F (Apr 17, 4:50 AM)20% (Apr 16, 12:50 PM)29.65 "Hg (Apr 18, 6:50 PM)
Average59 °F65%29.97 "Hg
* Reported Apr 5 10:20 AM — Apr 20 10:20 AM, Venice, Weather by CustomWeather, © 2014

Note: Actual official high and low records may vary slightly from our data, if they occured in-between our weather recording intervals... More about our weather records

Advertising

Historic Weather Conditions — Data for Previous 24 hours

 ConditionsComfort  
Time TempWeatherWind HumidityBarometerVisibility
10:20 AM
Apr 20
59 °FSunny.6 mph77%29.71 "Hg10 mi
9:50 AM59 °FSunny.3 mph77%29.71 "Hg10 mi
9:20 AM55 °FSunny.5 mph82%29.71 "Hg10 mi
8:50 AM55 °FSunny.6 mph77%29.71 "Hg10 mi
8:20 AM54 °FScattered clouds.5 mph82%29.68 "HgN/A
7:50 AM54 °FScattered clouds.3 mph82%29.68 "HgN/A
7:20 AM54 °FScattered clouds.1 mph82%29.71 "HgN/A
6:50 AM52 °FPassing clouds.1 mph88%29.68 "HgN/A
6:20 AM54 °FPassing clouds.1 mph82%29.68 "HgN/A
5:50 AM52 °FPassing clouds.5 mph82%29.68 "HgN/A
5:20 AM55 °FPassing clouds.3 mph77%29.65 "HgN/A
4:50 AM54 °FPassing clouds.2 mph82%29.68 "HgN/A
4:20 AM55 °FPassing clouds.No wind77%29.68 "HgN/A
3:50 AM55 °FPassing clouds.No wind82%29.68 "HgN/A
3:20 AM54 °FPassing clouds.3 mph88%29.71 "HgN/A
2:50 AM54 °FPassing clouds.2 mph88%29.71 "HgN/A
2:20 AM54 °FPassing clouds.3 mph82%29.68 "HgN/A
1:50 AM54 °FPassing clouds.3 mph82%29.71 "HgN/A
1:20 AM54 °FPassing clouds.1 mph82%29.71 "HgN/A
12:50 AM54 °FClear.No wind82%29.71 "Hg10 mi
12:20 AM54 °FClear.No wind77%29.71 "Hg10 mi
11:50 PM
Apr 19
54 °FClear.No wind77%29.71 "Hg10 mi
11:20 PM55 °FClear.3 mph77%29.71 "Hg10 mi
10:50 PM55 °FClear.5 mph72%29.71 "Hg10 mi
10:20 PM55 °FClear.2 mph77%29.71 "Hg10 mi
9:50 PM55 °FClear.5 mph72%29.71 "Hg10 mi
9:20 PM57 °FClear.6 mph67%29.71 "Hg10 mi
8:50 PM59 °FSunny.7 mph63%29.71 "Hg10 mi
8:20 PM59 °FSunny.7 mph63%29.71 "Hg10 mi
7:50 PM61 °FSunny.7 mph59%29.71 "Hg10 mi
7:20 PM61 °FSunny.14 mph59%29.71 "Hg10 mi
6:50 PM64 °FSunny.9 mph46%29.71 "Hg10 mi
6:20 PM64 °FSunny.9 mph46%29.71 "Hg10 mi
5:50 PM64 °FScattered clouds.12 mph43%29.71 "HgN/A
5:20 PM64 °FPassing clouds.12 mph43%29.71 "HgN/A
4:50 PM64 °FScattered clouds.7 mph43%29.71 "HgN/A
4:20 PM64 °FPassing clouds.13 mph43%29.71 "HgN/A
3:50 PM66 °FPassing clouds.10 mph40%29.71 "HgN/A
3:20 PM64 °FPassing clouds.13 mph43%29.71 "HgN/A
2:50 PM64 °FPassing clouds.13 mph46%29.74 "HgN/A
2:20 PM64 °FPassing clouds.16 mph43%29.74 "HgN/A
1:50 PM64 °FScattered clouds.17 mph43%29.71 "HgN/A
1:20 PM63 °FScattered clouds.15 mph45%29.74 "HgN/A
12:50 PM63 °FScattered clouds.14 mph45%29.74 "HgN/A
12:20 PM61 °FPartly sunny.15 mph52%29.74 "HgN/A
11:50 AM59 °FPartly sunny.16 mph51%29.74 "HgN/A
11:20 AM57 °FPartly sunny.15 mph51%29.71 "HgN/A
Weather by CustomWeather, © 2014

See weather overview